Weather History for KHYW - April, 2013

Change the Weather History Date:

Wednesday, April 3, 2013

  Actual Average Record
Temperature  
Mean Temperature 52 °F -  
Max Temperature 60 °F 74 °F 86 °F (2014)
Min Temperature 44 °F 47 °F 35 °F (2011)
Degree Days  
Heating Degree Days 13    
Growing Degree Days 2 (Base 50)    
Moisture  
Dew Point 41 °F    
Average Humidity 67    
Maximum Humidity 100    
Minimum Humidity 36    
Precipitation  
Precipitation 0.00 in - - ()
Sea Level Pressure  
Sea Level Pressure 30.19 in    
Wind  
Wind Speed 3 mph (NNE)    
Max Wind Speed 17 mph    
Max Gust Speed 22 mph    
Visibility 6 miles    
Events      
Averages and records for this station are not official NWS values.
T = Trace of Precipitation, MM = Missing Value Source: NWS Daily Summary

Daily Weather History Graph

Daily Weather History Graph

Search for Another Location

Airport or City:

Trip Planner

Search our weather history database for the weather conditions in past years. The results will help you decide how hot, cold, wet, or windy it might be!

Date:

Astronomy

Apr. 03, 2013 Rise Set
Actual Time 7:00 AM EDT 7:38 PM EDT
Civil Twilight 6:35 AM EDT 8:04 PM EDT
Nautical Twilight 6:06 AM EDT 8:33 PM EDT
Astronomical Twilight 5:35 AM EDT 9:04 PM EDT
Moon 2:22 AM EDT (4/3) 1:06 PM EDT (4/3)
Length of Visible Light 13h 28m
Length of Day
12h 37m
Last Quarter, 45% of the Moon is Illuminated
Apr 3
Last Quarter
Apr 10
New
Apr 18
First Quarter
Apr 25
Full
May 2
Last Quarter

Hourly Weather History & Observations

Time (EDT) Temp. Dew Point Humidity Pressure Visibility Wind Dir Wind Speed Gust Speed Precip Events Conditions
12:15 AM 44.6 °F 44.6 °F 100% 30.12 in 7.0 mi Calm Calm - N/A   Clear
12:35 AM 44.6 °F 44.6 °F 100% 30.13 in 5.0 mi Calm Calm - N/A   Clear
12:55 AM 44.6 °F 44.6 °F 100% 30.12 in 7.0 mi Calm Calm - N/A   Scattered Clouds
1:15 AM 44.6 °F 44.6 °F 100% 30.12 in 7.0 mi Calm Calm - N/A   Mostly Cloudy
1:35 AM 46.4 °F 46.4 °F 100% 30.12 in 7.0 mi Calm Calm - N/A   Overcast
1:55 AM 48.2 °F 48.2 °F 100% 30.11 in 7.0 mi Calm Calm - N/A   Overcast
2:15 AM 50.0 °F 50.0 °F 100% 30.11 in 7.0 mi Calm Calm - N/A   Overcast
2:35 AM 50.0 °F 50.0 °F 100% 30.11 in 7.0 mi Calm Calm - N/A   Overcast
2:55 AM 50.0 °F 50.0 °F 100% 30.10 in 7.0 mi Calm Calm - N/A   Mostly Cloudy
3:15 AM 50.0 °F 50.0 °F 100% 30.09 in 7.0 mi Calm Calm - N/A   Mostly Cloudy
3:35 AM 48.2 °F 48.2 °F 100% 30.09 in 7.0 mi Calm Calm - N/A   Mostly Cloudy
3:55 AM 46.4 °F 46.4 °F 100% 30.09 in 5.0 mi Calm Calm - N/A   Mostly Cloudy
4:15 AM 48.2 °F 48.2 °F 100% 30.09 in 5.0 mi Calm Calm - N/A   Scattered Clouds
4:35 AM 46.4 °F 46.4 °F 100% 30.10 in 4.0 mi Calm Calm - N/A   Clear
4:55 AM 46.4 °F 46.4 °F 100% 30.10 in 5.0 mi Calm Calm - N/A   Clear
5:15 AM 46.4 °F 46.4 °F 100% 30.10 in 5.0 mi Calm Calm - N/A   Clear
5:35 AM 46.4 °F 46.4 °F 100% 30.11 in 5.0 mi Calm Calm - N/A   Scattered Clouds
5:55 AM 48.2 °F 48.2 °F 100% 30.11 in 5.0 mi Calm Calm - N/A   Overcast
6:15 AM 50.0 °F 50.0 °F 100% 30.12 in 5.0 mi Calm Calm - N/A   Overcast
6:35 AM 50.0 °F 50.0 °F 100% 30.12 in 5.0 mi Calm Calm - N/A   Overcast
6:55 AM 50.0 °F 50.0 °F 100% 30.13 in 7.0 mi North 3.5 mph - N/A   Mostly Cloudy
7:15 AM 50.0 °F 50.0 °F 100% 30.14 in 7.0 mi North 4.6 mph - N/A   Overcast
7:35 AM 51.8 °F 50.0 °F 94% 30.16 in 5.0 mi North 6.9 mph - N/A   Overcast
7:55 AM 51.8 °F 48.2 °F 88% 30.18 in 5.0 mi North 5.8 mph - N/A   Overcast
8:15 AM 51.8 °F 44.6 °F 76% 30.20 in 5.0 mi North 9.2 mph - N/A   Haze
8:35 AM 51.8 °F 42.8 °F 71% 30.20 in 7.0 mi NNE 12.7 mph - N/A   Overcast
8:55 AM 51.8 °F 41.0 °F 67% 30.21 in 7.0 mi NNE 8.1 mph - N/A   Overcast
9:15 AM 51.8 °F 37.4 °F 58% 30.22 in 7.0 mi North 9.2 mph - N/A   Overcast
9:35 AM 51.8 °F 35.6 °F 54% 30.21 in 5.0 mi North 10.4 mph - N/A   Haze
9:55 AM 51.8 °F 32.0 °F 47% 30.22 in 5.0 mi NNE 10.4 mph 18.4 mph N/A   Haze
10:15 AM 53.6 °F 32.0 °F 44% 30.22 in 7.0 mi NNE 16.1 mph 19.6 mph N/A   Overcast
10:35 AM 53.6 °F 30.2 °F 41% 30.23 in 4.0 mi NE 17.3 mph 21.9 mph N/A   Haze
10:55 AM 53.6 °F 30.2 °F 41% 30.23 in 7.0 mi NNE 17.3 mph - N/A   Overcast
11:15 AM 55.4 °F 30.2 °F 38% 30.24 in 5.0 mi North 15.0 mph 20.7 mph N/A   Haze
11:35 AM 53.6 °F 30.2 °F 41% 30.24 in 7.0 mi NNE 12.7 mph - N/A   Overcast
11:55 AM 55.4 °F 32.0 °F 41% 30.25 in 7.0 mi North 11.5 mph 18.4 mph N/A   Overcast
12:15 PM 55.4 °F 32.0 °F 41% 30.25 in 7.0 mi NNE 12.7 mph 17.3 mph N/A   Overcast
12:35 PM 57.2 °F 32.0 °F 38% 30.25 in 7.0 mi NNE 10.4 mph 16.1 mph N/A   Overcast
12:55 PM 59.0 °F 32.0 °F 36% 30.23 in 5.0 mi ENE 9.2 mph - N/A   Haze
1:15 PM 59.0 °F 33.8 °F 39% 30.22 in 5.0 mi NNE 10.4 mph 17.3 mph N/A   Haze
1:35 PM 60.8 °F 35.6 °F 39% 30.22 in 7.0 mi NE 6.9 mph - N/A   Scattered Clouds
1:55 PM 60.8 °F 35.6 °F 39% 30.21 in 7.0 mi NE 10.4 mph 17.3 mph N/A   Scattered Clouds
2:15 PM 60.8 °F 35.6 °F 39% 30.20 in 7.0 mi NE 8.1 mph - N/A   Scattered Clouds
2:35 PM 60.8 °F 35.6 °F 39% 30.20 in 5.0 mi NNE 10.4 mph - N/A   Haze
2:55 PM 60.8 °F 35.6 °F 39% 30.19 in 7.0 mi NNE 9.2 mph - N/A   Clear
3:15 PM 60.8 °F 33.8 °F 36% 30.19 in 7.0 mi NE 8.1 mph - N/A   Clear
3:35 PM 60.8 °F 35.6 °F 39% 30.19 in 7.0 mi NE 6.9 mph - N/A   Clear
3:55 PM 60.8 °F 35.6 °F 39% 30.19 in 7.0 mi North 5.8 mph - N/A   Clear
4:15 PM 60.8 °F 33.8 °F 36% 30.19 in 7.0 mi NNE 9.2 mph - N/A   Clear
4:35 PM 60.8 °F 33.8 °F 36% 30.20 in 5.0 mi NNE 5.8 mph - N/A   Haze
4:55 PM 60.8 °F 33.8 °F 36% 30.20 in 5.0 mi NNE 10.4 mph - N/A   Haze
5:15 PM 60.8 °F 33.8 °F 36% 30.20 in 5.0 mi NNE 6.9 mph - N/A   Haze
5:35 PM 60.8 °F 33.8 °F 36% 30.20 in 7.0 mi NNE 8.1 mph - N/A   Clear
5:55 PM 59.0 °F 33.8 °F 39% 30.20 in 5.0 mi NNE 6.9 mph - N/A   Haze
6:15 PM 59.0 °F 33.8 °F 39% 30.20 in 5.0 mi NNE 8.1 mph - N/A   Haze
6:35 PM 59.0 °F 33.8 °F 39% 30.21 in 7.0 mi North 4.6 mph - N/A   Clear
6:55 PM 57.2 °F 41.0 °F 55% 30.21 in 7.0 mi Calm Calm - N/A   Clear
7:15 PM 55.4 °F 42.8 °F 63% 30.22 in 7.0 mi SSE 3.5 mph - N/A   Clear
7:35 PM 55.4 °F 42.8 °F 63% 30.22 in 5.0 mi Calm Calm - N/A   Haze
7:55 PM 53.6 °F 42.8 °F 67% 30.23 in 7.0 mi Calm Calm - N/A   Clear
8:15 PM 53.6 °F 42.8 °F 67% 30.23 in 7.0 mi Calm Calm - N/A   Clear
8:35 PM 53.6 °F 42.8 °F 67% 30.24 in 7.0 mi Calm Calm - N/A   Scattered Clouds
8:55 PM 53.6 °F 42.8 °F 67% 30.25 in 7.0 mi Calm Calm - N/A   Mostly Cloudy
9:15 PM 51.8 °F 42.8 °F 71% 30.25 in 7.0 mi Calm Calm - N/A   Mostly Cloudy
9:35 PM 51.8 °F 42.8 °F 71% 30.26 in 7.0 mi Calm Calm - N/A   Mostly Cloudy
9:55 PM 51.8 °F 42.8 °F 71% 30.26 in 7.0 mi Calm Calm - N/A   Clear
10:15 PM 51.8 °F 42.8 °F 71% 30.26 in 7.0 mi Calm Calm - N/A   Clear
10:35 PM 51.8 °F 42.8 °F 71% 30.26 in 7.0 mi NE 3.5 mph - N/A   Clear
10:55 PM 51.8 °F 41.0 °F 67% 30.26 in 7.0 mi Calm Calm - N/A   Clear
11:15 PM 51.8 °F 41.0 °F 67% 30.26 in 7.0 mi Calm Calm - N/A   Clear
11:35 PM 51.8 °F 41.0 °F 67% 30.27 in 7.0 mi Calm Calm - N/A   Scattered Clouds
11:55 PM 51.8 °F 41.0 °F 67% 30.27 in 7.0 mi Calm Calm - N/A   Mostly Cloudy